OAL017 LGIR-LGTS

Flight info

Callsign OAL017
Flight time 1h 2m
Altitude 34000
Route EPALO UM749 MIL UL617 LEKPO
Aircraft B738/M-SDE2E3FGHIRWXY/LB1

Departure

Time 2026-05-03 20:45
Airport Heraklion International Nikos Kazantzakis Airport (LGIR)

Arrival

Time 2026-05-03 21:47
Airport Thessaloniki Macedonia International Airport (LGTS)
Time Latitude Longitude Altitude Speed Heading
2026-05-03 20:36 35.33788 25.17990 102 ft 0 kts 213°
2026-05-03 20:40 35.33786 25.17989 65 ft 1 kts 211°
2026-05-03 20:41 35.33773 25.18002 92 ft 4 kts 102°
2026-05-03 20:41 35.33770 25.18077 93 ft 13 kts 93°
2026-05-03 20:41 35.33801 25.18206 89 ft 19 kts 57°
2026-05-03 20:41 35.33851 25.18373 89 ft 25 kts 94°
2026-05-03 20:42 35.33834 25.18619 89 ft 33 kts 95°
2026-05-03 20:42 35.33817 25.18879 89 ft 0 kts 95°
2026-05-03 20:43 35.33817 25.18887 89 ft 4 kts 95°
2026-05-03 20:43 35.33827 25.18947 92 ft 11 kts 65°
2026-05-03 20:43 35.33884 25.19025 87 ft 9 kts 343°
2026-05-03 20:43 35.33906 25.18982 88 ft 2 kts 275°
2026-05-03 20:44 35.33909 25.18934 88 ft 9 kts 275°
2026-05-03 20:44 35.33933 25.18622 87 ft 71 kts 275°
2026-05-03 20:44 35.34001 25.17761 95 ft 129 kts 276°
2026-05-03 20:44 35.34084 25.16616 655 ft 136 kts 279°
2026-05-03 20:45 35.34135 25.15389 1427 ft 148 kts 284°
2026-05-03 20:45 35.34474 25.14237 2353 ft 145 kts 316°
2026-05-03 20:45 35.35279 25.13375 2877 ft 170 kts 319°
2026-05-03 20:45 35.36331 25.12467 3137 ft 198 kts 330°
2026-05-03 20:46 35.37704 25.11886 3423 ft 226 kts 341°
2026-05-03 20:46 35.39302 25.11374 4057 ft 239 kts 342°
2026-05-03 20:46 35.40899 25.10869 5139 ft 235 kts 343°
2026-05-03 20:46 35.42454 25.10377 6111 ft 237 kts 343°
2026-05-03 20:47 35.44063 25.09866 6962 ft 239 kts 343°
2026-05-03 20:47 35.45685 25.09349 7817 ft 243 kts 343°
2026-05-03 20:47 35.47339 25.08820 8619 ft 248 kts 342°
2026-05-03 20:47 35.49033 25.08276 9409 ft 254 kts 342°
2026-05-03 20:48 35.50757 25.07723 10221 ft 257 kts 342°
2026-05-03 20:48 35.52549 25.07145 10571 ft 279 kts 342°
2026-05-03 20:48 35.54506 25.06511 10769 ft 302 kts 342°
2026-05-03 20:48 35.56616 25.05830 10965 ft 324 kts 343°
2026-05-03 20:49 35.58837 25.05115 11489 ft 333 kts 343°
2026-05-03 20:49 35.61051 25.04406 12596 ft 326 kts 342°
2026-05-03 20:49 35.63247 25.03700 13467 ft 328 kts 342°
2026-05-03 20:49 35.65475 25.02980 14194 ft 334 kts 342°
2026-05-03 20:50 35.67734 25.02250 14928 ft 337 kts 342°
2026-05-03 20:50 35.70011 25.01514 15732 ft 340 kts 342°
2026-05-03 20:50 35.72299 25.00743 16506 ft 342 kts 340°
2026-05-03 20:50 35.74549 24.99763 17299 ft 344 kts 336°
2026-05-03 20:51 35.76787 24.98690 18078 ft 346 kts 336°
2026-05-03 20:51 35.79039 24.97591 18763 ft 350 kts 335°
2026-05-03 20:51 35.81301 24.96495 19492 ft 350 kts 335°
2026-05-03 20:51 35.83568 24.95408 20264 ft 349 kts 335°
2026-05-03 20:52 35.85832 24.94332 21002 ft 349 kts 335°
2026-05-03 20:52 35.88104 24.93257 21705 ft 350 kts 335°
2026-05-03 20:52 35.90384 24.92181 22392 ft 351 kts 335°
2026-05-03 20:52 35.92670 24.91104 23071 ft 352 kts 334°
2026-05-03 20:53 35.94966 24.90021 23704 ft 354 kts 334°
2026-05-03 20:53 35.97269 24.88935 24214 ft 357 kts 335°
2026-05-03 20:53 35.99606 24.87831 24580 ft 362 kts 335°
2026-05-03 20:53 36.01985 24.86706 24743 ft 373 kts 335°
2026-05-03 20:54 36.04441 24.85544 24910 ft 382 kts 335°
2026-05-03 20:54 36.09448 24.83176 25679 ft 388 kts 335°
2026-05-03 20:54 36.11947 24.81991 26050 ft 391 kts 335°
2026-05-03 20:55 36.14495 24.80781 26398 ft 394 kts 335°
2026-05-03 20:55 36.17101 24.79543 26737 ft 398 kts 335°
2026-05-03 20:55 36.19659 24.78326 27072 ft 401 kts 335°
2026-05-03 20:55 36.22272 24.77083 27436 ft 404 kts 335°
2026-05-03 20:56 36.24902 24.75830 27742 ft 407 kts 335°
2026-05-03 20:56 36.27561 24.74564 28040 ft 410 kts 335°
2026-05-03 20:56 36.30229 24.73292 28448 ft 411 kts 335°
2026-05-03 20:56 36.32895 24.72022 28956 ft 409 kts 335°
2026-05-03 20:57 36.35549 24.70756 29466 ft 408 kts 335°
2026-05-03 20:57 36.38200 24.69489 29891 ft 409 kts 335°
2026-05-03 20:57 36.40856 24.68219 30269 ft 409 kts 335°
2026-05-03 20:57 36.43520 24.66944 30591 ft 410 kts 335°
2026-05-03 20:58 36.46191 24.65664 30855 ft 413 kts 335°
2026-05-03 20:58 36.48876 24.64376 31138 ft 416 kts 335°
2026-05-03 20:58 36.51590 24.63073 31319 ft 420 kts 335°
2026-05-03 20:58 36.54321 24.61762 31633 ft 421 kts 335°
2026-05-03 20:59 36.57049 24.60452 31993 ft 421 kts 335°
2026-05-03 20:59 36.59786 24.59137 32279 ft 422 kts 335°
2026-05-03 20:59 36.61605 24.58262 32440 ft 424 kts 335°
2026-05-03 20:59 36.64361 24.56935 32709 ft 426 kts 335°
2026-05-03 21:00 36.67124 24.55604 33020 ft 426 kts 335°
2026-05-03 21:00 36.68959 24.54720 33230 ft 427 kts 335°
2026-05-03 21:00 36.72671 24.52929 33665 ft 428 kts 336°
2026-05-03 21:00 36.75477 24.51661 33885 ft 432 kts 341°
2026-05-03 21:01 36.78417 24.50767 34035 ft 437 kts 345°
2026-05-03 21:01 36.81401 24.49986 34036 ft 438 kts 345°
2026-05-03 21:01 36.87356 24.48463 34050 ft 435 kts 345°
2026-05-03 21:02 36.93261 24.46891 34051 ft 433 kts 345°
2026-05-03 21:02 36.99140 24.45288 34060 ft 433 kts 345°
2026-05-03 21:03 37.05023 24.43679 34062 ft 433 kts 345°
2026-05-03 21:03 37.10917 24.42068 34052 ft 434 kts 345°
2026-05-03 21:04 37.16824 24.40448 34064 ft 435 kts 345°
2026-05-03 21:04 37.22753 24.38822 34064 ft 437 kts 346°
2026-05-03 21:05 37.28704 24.37216 34072 ft 438 kts 346°
2026-05-03 21:05 37.34622 24.35621 34070 ft 438 kts 346°
2026-05-03 21:06 37.40581 24.34009 34069 ft 438 kts 346°
2026-05-03 21:06 37.46529 24.32394 34081 ft 437 kts 346°
2026-05-03 21:07 37.52463 24.30782 34080 ft 436 kts 346°
2026-05-03 21:07 37.58333 24.28969 34084 ft 433 kts 341°
2026-05-03 21:08 37.64049 24.26605 34083 ft 432 kts 340°
2026-05-03 21:08 37.69731 24.24177 34085 ft 431 kts 340°
2026-05-03 21:09 37.75428 24.21784 34096 ft 431 kts 341°
2026-05-03 21:09 37.81131 24.19416 34103 ft 432 kts 341°
2026-05-03 21:10 37.86842 24.17051 34099 ft 432 kts 341°
2026-05-03 21:10 37.92568 24.14678 34116 ft 433 kts 341°
2026-05-03 21:11 37.98293 24.12300 34106 ft 433 kts 341°
2026-05-03 21:11 38.04023 24.09916 34102 ft 434 kts 341°
2026-05-03 21:12 38.09749 24.07529 34115 ft 433 kts 341°
2026-05-03 21:12 38.15464 24.05143 34107 ft 432 kts 341°
2026-05-03 21:13 38.21170 24.02757 34111 ft 431 kts 341°
2026-05-03 21:13 38.26830 24.00386 34118 ft 431 kts 341°
2026-05-03 21:14 38.32519 23.97998 34120 ft 430 kts 341°
2026-05-03 21:14 38.38205 23.95609 34133 ft 430 kts 341°
2026-05-03 21:15 38.43891 23.93215 34128 ft 431 kts 341°
2026-05-03 21:15 38.49587 23.90813 34125 ft 432 kts 341°
2026-05-03 21:16 38.55291 23.88404 34130 ft 432 kts 341°
2026-05-03 21:16 38.60998 23.85989 34129 ft 432 kts 341°
2026-05-03 21:17 38.65782 23.83962 34146 ft 432 kts 341°
2026-05-03 21:17 38.72405 23.81151 34128 ft 431 kts 341°
2026-05-03 21:18 38.78084 23.78736 34127 ft 430 kts 341°
2026-05-03 21:18 38.83743 23.76325 34124 ft 428 kts 341°
2026-05-03 21:19 38.89389 23.73916 34129 ft 427 kts 341°
2026-05-03 21:19 38.95028 23.71506 34129 ft 427 kts 341°
2026-05-03 21:20 39.00674 23.69089 34130 ft 428 kts 341°
2026-05-03 21:20 39.06328 23.66664 34130 ft 429 kts 341°
2026-05-03 21:21 39.11998 23.64227 34128 ft 430 kts 342°
2026-05-03 21:21 39.17687 23.61780 34135 ft 432 kts 342°
2026-05-03 21:22 39.23355 23.59114 33714 ft 439 kts 339°
2026-05-03 21:22 39.26205 23.57707 33098 ft 437 kts 339°
2026-05-03 21:22 39.29047 23.56319 32402 ft 436 kts 340°
2026-05-03 21:23 39.31890 23.54942 31685 ft 436 kts 340°
2026-05-03 21:23 39.34733 23.53570 31000 ft 436 kts 340°
2026-05-03 21:23 39.37556 23.52207 30493 ft 431 kts 340°
2026-05-03 21:23 39.40350 23.50856 29919 ft 427 kts 340°
2026-05-03 21:24 39.43112 23.49517 29305 ft 422 kts 340°
2026-05-03 21:24 39.45839 23.48194 28775 ft 416 kts 340°
2026-05-03 21:24 39.48527 23.46888 28242 ft 410 kts 340°
2026-05-03 21:24 39.51146 23.45614 27733 ft 405 kts 340°
2026-05-03 21:25 39.53803 23.44321 27202 ft 400 kts 340°
2026-05-03 21:25 39.56392 23.43060 26680 ft 396 kts 341°
2026-05-03 21:25 39.58921 23.41827 26188 ft 391 kts 341°
2026-05-03 21:25 39.61455 23.40591 25703 ft 387 kts 341°
2026-05-03 21:26 39.63970 23.39363 25209 ft 384 kts 341°
2026-05-03 21:26 39.66461 23.38147 24723 ft 381 kts 341°
2026-05-03 21:26 39.68929 23.36941 24241 ft 378 kts 341°
2026-05-03 21:26 39.71379 23.35742 23770 ft 375 kts 341°
2026-05-03 21:27 39.73818 23.34549 23163 ft 373 kts 341°
2026-05-03 21:27 39.76246 23.33368 22567 ft 371 kts 341°
2026-05-03 21:27 39.78648 23.32204 22088 ft 367 kts 342°
2026-05-03 21:27 39.81027 23.31050 21596 ft 363 kts 342°
2026-05-03 21:28 39.83380 23.29908 21135 ft 359 kts 342°
2026-05-03 21:28 39.85711 23.28775 20673 ft 356 kts 342°
2026-05-03 21:28 39.88026 23.27649 20214 ft 353 kts 342°
2026-05-03 21:28 39.90316 23.26534 19762 ft 351 kts 342°
2026-05-03 21:29 39.92596 23.25421 19264 ft 349 kts 342°
2026-05-03 21:29 39.94866 23.24306 18796 ft 348 kts 342°
2026-05-03 21:29 39.97124 23.23194 18329 ft 346 kts 342°
2026-05-03 21:29 39.99368 23.22088 17836 ft 344 kts 341°
2026-05-03 21:30 40.01593 23.20991 17394 ft 340 kts 342°
2026-05-03 21:30 40.03801 23.19902 16924 ft 338 kts 342°
2026-05-03 21:30 40.05993 23.18821 16498 ft 335 kts 342°
2026-05-03 21:30 40.08168 23.17748 16060 ft 333 kts 342°
2026-05-03 21:31 40.10326 23.16683 15626 ft 331 kts 342°
2026-05-03 21:31 40.12470 23.15623 15195 ft 329 kts 342°
2026-05-03 21:31 40.14606 23.14566 14753 ft 327 kts 342°
2026-05-03 21:31 40.16821 23.13470 14300 ft 325 kts 341°
2026-05-03 21:32 40.18813 23.12483 13904 ft 323 kts 341°
2026-05-03 21:32 40.20912 23.11442 13438 ft 321 kts 341°
2026-05-03 21:32 40.22990 23.10410 13013 ft 318 kts 341°
2026-05-03 21:32 40.25047 23.09388 12605 ft 315 kts 342°
2026-05-03 21:33 40.27084 23.08376 12180 ft 313 kts 342°
2026-05-03 21:33 40.29111 23.07368 11776 ft 310 kts 342°
2026-05-03 21:33 40.31122 23.06368 11361 ft 308 kts 342°
2026-05-03 21:33 40.33126 23.05371 10952 ft 307 kts 342°
2026-05-03 21:34 40.35095 23.04390 10788 ft 297 kts 342°
2026-05-03 21:34 40.37007 23.03436 10654 ft 291 kts 342°
2026-05-03 21:34 40.38889 23.02497 10533 ft 288 kts 342°
2026-05-03 21:34 40.40749 23.01570 10415 ft 284 kts 342°
2026-05-03 21:35 40.42563 23.00664 10288 ft 275 kts 342°
2026-05-03 21:35 40.44319 22.99786 10183 ft 266 kts 342°
2026-05-03 21:35 40.46032 22.98913 9918 ft 264 kts 339°
2026-05-03 21:35 40.47687 22.97904 9667 ft 262 kts 337°
2026-05-03 21:36 40.49316 22.96851 9378 ft 260 kts 336°
2026-05-03 21:36 40.50933 22.95798 9102 ft 259 kts 336°
2026-05-03 21:36 40.52538 22.94755 8831 ft 256 kts 336°
2026-05-03 21:36 40.54134 22.93722 8564 ft 255 kts 336°
2026-05-03 21:37 40.55721 22.92698 8289 ft 253 kts 337°
2026-05-03 21:37 40.57298 22.91683 8023 ft 252 kts 337°
2026-05-03 21:37 40.58866 22.90675 7755 ft 250 kts 337°
2026-05-03 21:37 40.60428 22.89671 7503 ft 249 kts 337°
2026-05-03 21:38 40.61983 22.88672 7243 ft 248 kts 337°
2026-05-03 21:38 40.63531 22.87677 6980 ft 247 kts 337°
2026-05-03 21:38 40.65065 22.86691 6718 ft 247 kts 337°
2026-05-03 21:38 40.66618 22.85693 6339 ft 251 kts 337°
2026-05-03 21:39 40.68188 22.84684 6024 ft 251 kts 337°
2026-05-03 21:39 40.69759 22.83672 5735 ft 251 kts 337°
2026-05-03 21:39 40.71322 22.82665 5443 ft 250 kts 337°
2026-05-03 21:39 40.72884 22.81659 5173 ft 249 kts 337°
2026-05-03 21:40 40.74435 22.80676 4907 ft 247 kts 341°
2026-05-03 21:40 40.76080 22.80408 4732 ft 235 kts 13°
2026-05-03 21:40 40.77531 22.81245 4635 ft 225 kts 38°
2026-05-03 21:40 40.78531 22.82768 4522 ft 219 kts 61°
2026-05-03 21:41 40.78929 22.84668 4431 ft 215 kts 85°
2026-05-03 21:41 40.78666 22.86587 4329 ft 214 kts 110°
2026-05-03 21:41 40.77817 22.88172 4224 ft 211 kts 133°
2026-05-03 21:41 40.76573 22.89231 4067 ft 220 kts 160°
2026-05-03 21:42 40.75061 22.89665 3882 ft 222 kts 163°
2026-05-03 21:42 40.73566 22.90173 3647 ft 221 kts 162°
2026-05-03 21:42 40.72082 22.90675 3453 ft 220 kts 165°
2026-05-03 21:42 40.70590 22.91157 3221 ft 221 kts 165°
2026-05-03 21:43 40.69090 22.91636 2983 ft 222 kts 164°
2026-05-03 21:43 40.67619 22.92102 2785 ft 211 kts 164°
2026-05-03 21:43 40.66239 22.92540 2574 ft 197 kts 164°
2026-05-03 21:43 40.64962 22.92948 2466 ft 182 kts 165°
2026-05-03 21:44 40.63772 22.93329 2239 ft 175 kts 164°
2026-05-03 21:44 40.62631 22.93692 2011 ft 164 kts 165°
2026-05-03 21:44 40.61558 22.94036 1774 ft 154 kts 165°
2026-05-03 21:44 40.60511 22.94371 1567 ft 153 kts 165°
2026-05-03 21:45 40.59478 22.94701 1372 ft 152 kts 165°
2026-05-03 21:45 40.58442 22.95031 1158 ft 154 kts 165°
2026-05-03 21:45 40.57757 22.95249 1003 ft 152 kts 165°
2026-05-03 21:45 40.56725 22.95580 809 ft 154 kts 167°
2026-05-03 21:46 40.55670 22.95916 600 ft 156 kts 168°
2026-05-03 21:46 40.54538 22.96278 380 ft 151 kts 168°
2026-05-03 21:46 40.53611 22.96573 198 ft 152 kts 167°
2026-05-03 21:46 40.52281 22.96976 27 ft 131 kts 168°
2026-05-03 21:47 40.51892 22.97119 27 ft 44 kts 164°
2026-05-03 21:47 40.51667 22.97199 29 ft 24 kts 165°
2026-05-03 21:47 40.51521 22.97280 29 ft 23 kts 120°
2026-05-03 21:47 40.51526 22.97390 28 ft 12 kts 50°
2026-05-03 21:48 40.51606 22.97396 28 ft 12 kts 347°
2026-05-03 21:48 40.51686 22.97372 28 ft 12 kts 347°
2026-05-03 21:48 40.51764 22.97348 28 ft 11 kts 347°
2026-05-03 21:48 40.51840 22.97324 27 ft 11 kts 347°
2026-05-03 21:49 40.51902 22.97362 27 ft 11 kts 78°
2026-05-03 21:49 40.51916 22.97462 27 ft 11 kts 80°
2026-05-03 21:49 40.51933 22.97559 28 ft 11 kts 71°
2026-05-03 21:49 40.51971 22.97642 28 ft 10 kts 55°
2026-05-03 21:50 40.52019 22.97710 28 ft 10 kts 34°
2026-05-03 21:50 40.52076 22.97761 28 ft 10 kts 34°
2026-05-03 21:50 40.52118 22.97813 28 ft 1 kts 44°
2026-05-03 21:50 40.52122 22.97817 28 ft 0 kts 44°